DateTimeUTC,F1_A11,F1_S11,BsB_S11,BsG_S11,BsR_S11,BbsB_S11,BbsG_S11,BbsR_S11,BaB_A11,BaG_A11,BaR_A11,Tu_S11,T_S11,Uu_S11,U_S11,P_S11,T1_A11
2021-12-16T13:00:00Z,00000200,21000000,,,,,,,-000.16,-000.04,-000.28,19.5,26.8,,00.0,0644.2,31.1
2021-12-16T13:01:00Z,00000200,21000000,,,,,,,-000.12,-000.47,-000.01,19.5,26.8,,00.0,0644.2,31.1
2021-12-16T13:02:00Z,00000200,21000000,,,,,,,-000.24,0000.08,-000.09,19.4,26.8,,00.0,0644.3,31.1
2021-12-16T13:03:00Z,00000200,61000000,,,,,,,-000.28,-000.12,0000.23,19.4,26.8,,00.0,0644.3,31.1
2021-12-16T13:04:00Z,00000200,41000000,0000.52,0000.21,-000.21,0000.02,-000.13,-000.23,0000.23,-000.24,-000.21,19.6,26.6,,00.0,0645.1,31.1
2021-12-16T13:05:00Z,00000200,01000000,0000.03,0000.12,0000.01,0000.13,-000.27,-000.11,0000.00,0000.31,-000.03,19.6,26.6,,00.0,0645.1,31.1
2021-12-16T13:06:00Z,00000200,01000000,0000.33,0000.09,-000.01,0000.64,-000.32,0000.29,-000.05,-000.04,0000.13,19.6,26.6,,00.0,0645.1,31.1
2021-12-16T13:07:00Z,00000200,01000000,0000.25,-000.11,0000.30,-000.01,-000.24,-000.18,0000.43,-000.03,0000.09,19.7,26.6,,00.0,0645.1,31.2
2021-12-16T13:08:00Z,00000200,01000000,-000.17,0000.04,-000.34,-000.08,-000.20,-000.11,-000.07,0000.37,-000.22,19.7,26.6,,00.0,0645.1,31.2
2021-12-16T13:09:00Z,00000200,01000000,-000.13,0000.10,0000.26,0000.00,-000.00,-000.19,-000.05,-000.13,0000.04,19.7,26.6,,00.0,0645.1,31.2
2021-12-16T13:10:00Z,00000200,01000000,-000.74,-000.04,0000.20,0000.19,-000.22,-000.24,0000.20,0000.18,0000.36,19.8,26.6,,00.0,0645.1,31.2
2021-12-16T13:11:00Z,00000200,01000000,0000.30,0000.08,0000.08,0000.79,-000.02,-000.14,-000.07,0000.08,0000.07,19.8,26.7,,00.0,0645.1,31.2
2021-12-16T13:12:00Z,00000200,01000000,0000.34,0000.31,-000.08,0000.37,0000.16,0000.02,-000.08,0000.02,0000.31,19.8,26.7,,00.0,0645.1,31.2
2021-12-16T13:13:00Z,00000200,01000000,-000.14,0000.15,0000.10,0000.61,-000.19,0000.13,0000.23,-000.29,-000.34,19.8,26.6,,00.0,0645.1,31.2
2021-12-16T13:14:00Z,00000200,01000000,-000.01,-000.11,-000.13,0000.66,0000.06,-000.13,-000.07,0000.34,0000.25,19.7,26.6,,00.0,0645.1,31.1
2021-12-16T13:15:00Z,00000200,01000000,0000.22,0000.18,-000.08,-000.40,-000.18,-000.09,0000.21,-000.07,-000.09,19.7,26.6,,00.0,0645.1,31.1
2021-12-16T13:16:00Z,00000200,01000000,0000.20,-000.10,0000.07,0000.24,-000.04,0000.28,-000.10,-000.10,-000.07,19.6,26.5,,00.0,0645.1,31.1
2021-12-16T13:17:00Z,00000200,01000000,0000.53,0000.13,-000.39,-000.19,0000.05,-000.12,0000.16,-000.16,0000.18,19.6,26.5,,00.0,0645.1,31.1
2021-12-16T13:18:00Z,00000200,01000000,0000.77,-000.22,0000.15,-000.10,-000.04,-000.25,-000.20,0000.36,-000.14,19.6,26.5,,00.0,0645.1,31.1
2021-12-16T13:19:00Z,00000200,01000000,0000.54,0000.00,-000.02,0000.62,-000.10,0000.12,0000.34,0000.41,-000.09,19.7,26.5,,00.0,0645.1,31.1
2021-12-16T13:20:00Z,00000200,01000000,-000.62,0000.14,0000.42,0000.26,-000.21,0000.06,-000.21,-000.14,0000.21,19.7,26.6,,00.0,0645.1,31.2
2021-12-16T13:21:00Z,00000200,01000000,-000.64,-000.03,0000.07,0000.29,-000.34,-000.05,0000.66,0000.13,0000.21,19.7,26.6,,00.0,0645.1,31.2
2021-12-16T13:22:00Z,00000200,01000000,0000.18,0000.20,0000.14,0001.03,-000.10,-000.02,-000.04,0000.39,0000.06,19.8,26.6,,00.0,0645.1,31.2
2021-12-16T13:23:00Z,00000200,01000000,-000.16,0000.10,-000.03,0000.29,-000.28,-000.14,-000.01,-000.03,0000.19,19.8,26.6,,00.0,0645.1,31.2
2021-12-16T13:24:00Z,00000200,01000000,-000.21,0000.26,0000.20,0000.29,0000.06,0000.20,0000.12,0000.20,-000.15,19.8,26.6,,00.0,0645.1,31.2
2021-12-16T13:25:00Z,00000200,01000000,0000.92,0000.07,0000.22,-000.01,-000.09,0000.03,0000.03,-000.09,-000.02,19.9,26.7,,00.0,0645.1,31.2
2021-12-16T13:26:00Z,00000200,01000000,0000.18,0000.01,0000.09,-000.13,-000.13,-000.12,0000.17,-000.03,0000.28,19.9,26.7,,00.0,0645.1,31.2
2021-12-16T13:27:00Z,00000200,01000000,0000.46,0000.27,0000.12,-000.33,0000.22,0000.14,-000.04,0000.15,-000.23,20.0,26.7,,00.0,0645.1,31.2
2021-12-16T13:28:00Z,00000200,01000000,-000.37,0000.10,0000.11,-000.09,-000.35,0000.15,0000.47,0000.37,0000.38,20.0,26.7,,00.0,0645.1,31.2
2021-12-16T13:29:00Z,00000200,01000000,0000.73,0000.43,0000.42,0000.63,0000.18,-000.01,-000.28,-000.37,-000.03,19.9,26.7,,00.0,0645.1,31.2
2021-12-16T13:30:00Z,00000200,01000000,0000.23,0000.07,0000.10,-000.23,-000.23,0000.04,-000.64,-000.26,-000.25,19.9,26.7,,00.0,0645.1,31.2
2021-12-16T13:31:00Z,00000200,01000000,0000.06,0000.26,-000.26,0000.44,-000.22,0000.02,0000.35,0000.12,-000.04,19.9,26.6,,00.0,0645.1,31.2
2021-12-16T13:32:00Z,00000200,01000000,0000.48,0000.25,0000.12,0000.40,-000.19,0000.21,-000.11,-000.21,0000.33,19.9,26.6,,00.0,0645.1,31.2
2021-12-16T13:33:00Z,00000200,01000000,-000.11,0000.12,-000.02,-000.18,-000.13,-000.08,0000.57,0000.55,-000.21,19.9,26.6,,00.0,0645.1,31.1
2021-12-16T13:34:00Z,00000200,01000000,0000.41,0000.03,-000.15,0000.45,-000.11,-000.27,-000.36,-000.24,0000.27,19.9,26.7,,00.0,0645.1,31.2
2021-12-16T13:35:00Z,00000200,01000000,-000.38,0000.03,0000.18,0000.71,0000.07,-000.32,0000.29,0000.39,0000.04,20.0,26.7,,00.0,0645.1,31.2
2021-12-16T13:36:00Z,00000200,01000000,0000.28,0000.35,-000.16,0000.05,-000.23,0000.19,0000.16,0000.08,0000.17,20.1,26.7,,00.0,0645.1,31.2
2021-12-16T13:37:00Z,00000200,01000000,0000.06,0000.31,0000.33,0000.20,-000.29,-000.04,0000.27,-000.15,0000.01,20.1,26.7,,00.0,0645.1,31.2
2021-12-16T13:38:00Z,00000200,01000000,-000.33,0000.42,-000.11,0000.48,-000.10,0000.05,-000.19,0000.01,0000.18,20.1,26.8,,00.0,0645.1,31.2
2021-12-16T13:39:00Z,00000200,01000000,-000.03,-000.01,-000.03,0000.82,-000.28,-000.14,0000.26,0000.27,-000.02,20.2,26.7,,00.0,0645.1,31.2
2021-12-16T13:40:00Z,00000200,01000000,0000.18,0000.10,0000.28,0000.45,0000.10,-000.18,-000.23,-000.10,0000.09,20.2,26.8,,00.0,0645.1,31.2
2021-12-16T13:41:00Z,00000200,01000000,0000.76,0000.03,0000.10,0000.55,0000.03,-000.17,0000.13,-000.04,-000.18,20.3,26.8,,00.0,0645.1,31.2
2021-12-16T13:42:00Z,00000200,01000000,0000.33,0000.06,0000.15,0000.04,-000.19,-000.12,-000.23,0000.41,-000.00,20.3,26.8,,00.0,0645.1,31.2
2021-12-16T13:43:00Z,00000200,01000000,0000.10,0000.06,0000.02,0000.47,-000.34,-000.18,0000.13,-000.33,0000.11,20.3,26.8,,00.0,0645.1,31.2
2021-12-16T13:44:00Z,00000200,01000000,-000.48,-000.17,0000.16,0000.01,-000.10,-000.10,0000.31,0000.14,0000.03,20.3,26.9,,00.0,0645.1,31.2
2021-12-16T13:45:00Z,00000200,01000000,0000.33,0000.12,0000.34,0000.50,-000.13,0000.20,-000.21,0000.09,-000.06,20.2,26.8,,00.0,0645.1,31.2
2021-12-16T13:46:00Z,00000200,01000000,0000.10,0000.04,-000.33,0000.24,-000.15,0000.06,0000.20,0000.03,0000.02,20.2,26.8,,00.0,0645.1,31.2
2021-12-16T13:47:00Z,00000200,01000000,0000.06,0000.22,-000.09,0000.41,-000.24,-000.48,-000.39,-000.23,-000.06,20.2,26.8,,00.0,0645.1,31.1
2021-12-16T13:48:00Z,00000200,01000000,0000.40,0000.25,-000.16,0000.29,-000.08,0000.33,0000.62,0000.15,0000.09,20.2,26.8,,00.0,0645.1,31.2
2021-12-16T13:49:00Z,00000200,01000000,0000.30,-000.16,0000.04,0000.18,-000.34,0000.17,-000.16,0000.08,0000.31,20.3,26.8,,00.0,0645.1,31.2
2021-12-16T13:50:00Z,00000200,01000000,0000.25,0000.20,0000.11,0000.29,-000.33,-000.19,-000.12,0000.05,-000.17,20.3,26.8,,00.0,0645.0,31.2
2021-12-16T13:51:00Z,00000200,01000000,-000.18,0000.01,0000.18,-000.45,0000.14,0000.27,0000.16,0000.15,-000.03,20.3,26.9,,00.0,0645.1,31.1
2021-12-16T13:52:00Z,00000200,01000000,0000.30,0000.26,0000.25,-000.18,-000.14,-000.01,-000.13,-000.13,0000.28,20.4,26.9,,00.0,0645.1,31.2
2021-12-16T13:53:00Z,00000200,01000000,0000.19,0000.08,-000.04,0000.09,0000.04,-000.02,0000.21,0000.10,-000.20,20.4,26.9,,00.0,0645.1,31.2
2021-12-16T13:54:00Z,00000200,01000000,0000.34,0000.15,-000.37,0000.49,0000.00,-000.08,0000.08,-000.11,0000.16,20.5,26.9,,00.0,0645.1,31.2
2021-12-16T13:55:00Z,00000200,01000000,0000.28,0000.28,-000.01,-000.22,-000.32,0000.01,-000.23,-000.06,0000.06,20.5,26.9,,00.0,0645.1,31.2
2021-12-16T13:56:00Z,00000200,01000000,0000.03,0000.24,-000.06,0001.46,-000.01,-000.14,0000.13,0000.10,-000.39,20.5,26.9,,00.0,0645.1,31.2
2021-12-16T13:57:00Z,00000200,41000000,,,,,,,0000.42,0000.10,0000.36,20.6,26.9,,00.0,0644.9,31.2
2021-12-16T13:58:00Z,00000200,61000000,,,,,,,-000.34,0000.24,0000.08,20.1,27.1,,00.0,0644.1,31.1
2021-12-16T13:59:00Z,00000200,21000000,,,,,,,-000.24,-000.38,-000.50,20.1,27.1,,00.0,0644.1,31.1
